TimeMST,TemperatureF,Dew PointF,Humidity,Sea Level PressureIn,VisibilityMPH,Wind Direction,Wind SpeedMPH,Gust SpeedMPH,PrecipitationIn,Events,Conditions,WindDirDegrees,DateUTC
12:54 AM,33.1,19.9,59,30.37,10.0,SSE,3.5,-,N/A,,Clear,160,2013-03-02 07:54:00
1:54 AM,32.0,19.9,61,30.36,10.0,SSE,5.8,-,N/A,,Clear,160,2013-03-02 08:54:00
2:54 AM,28.9,19.0,67,30.36,10.0,Calm,Calm,-,N/A,,Clear,0,2013-03-02 09:54:00
3:54 AM,26.1,18.0,71,30.36,10.0,South,5.8,-,N/A,,Clear,180,2013-03-02 10:54:00
4:54 AM,28.0,19.0,69,30.36,10.0,South,4.6,-,N/A,,Clear,170,2013-03-02 11:54:00
5:54 AM,24.1,17.1,75,30.39,10.0,South,3.5,-,N/A,,Clear,180,2013-03-02 12:54:00
6:54 AM,19.9,15.1,81,30.47,10.0,WNW,3.5,-,N/A,,Clear,290,2013-03-02 13:54:00
7:54 AM,28.0,19.9,72,30.46,10.0,Calm,Calm,-,N/A,,Clear,0,2013-03-02 14:54:00
8:54 AM,36.0,21.9,57,30.43,10.0,Calm,Calm,-,N/A,,Clear,0,2013-03-02 15:54:00
9:54 AM,44.1,21.0,40,30.40,10.0,Calm,Calm,-,N/A,,Clear,0,2013-03-02 16:54:00
10:54 AM,50.0,21.0,32,30.37,10.0,Calm,Calm,-,N/A,,Clear,0,2013-03-02 17:54:00
11:54 AM,55.0,21.0,27,30.32,10.0,WNW,4.6,-,N/A,,Clear,300,2013-03-02 18:54:00
12:54 PM,57.9,19.9,23,30.29,10.0,NNW,6.9,-,N/A,,Clear,330,2013-03-02 19:54:00
1:54 PM,62.1,18.0,18,30.24,10.0,WNW,6.9,-,N/A,,Clear,300,2013-03-02 20:54:00
2:54 PM,63.0,14.0,15,30.23,10.0,WNW,4.6,-,N/A,,Clear,300,2013-03-02 21:54:00
3:54 PM,64.0,12.9,14,30.22,10.0,Calm,Calm,-,N/A,,Clear,0,2013-03-02 22:54:00
4:54 PM,63.0,10.9,13,30.18,10.0,Calm,Calm,-,N/A,,Clear,0,2013-03-02 23:54:00
5:54 PM,55.0,12.9,19,30.22,10.0,West,4.6,-,N/A,,Clear,280,2013-03-03 00:54:00
6:54 PM,43.0,14.0,31,30.27,10.0,WNW,3.5,-,N/A,,Clear,290,2013-03-03 01:54:00
7:54 PM,43.0,17.1,35,30.23,10.0,SSE,4.6,-,N/A,,Clear,160,2013-03-03 02:54:00
8:54 PM,43.0,17.1,35,30.21,10.0,South,6.9,-,N/A,,Clear,180,2013-03-03 03:54:00
9:54 PM,41.0,18.0,40,30.20,10.0,South,5.8,-,N/A,,Clear,170,2013-03-03 04:54:00
10:54 PM,39.0,19.0,45,30.16,10.0,SSE,4.6,-,N/A,,Clear,150,2013-03-03 05:54:00
11:54 PM,37.0,18.0,46,30.15,10.0,Variable,3.5,-,N/A,,Clear,0,2013-03-03 06:54:00